Regional Weather Roundup
Issued by NWS

Home | Current Version | Previous Version | Text Only | Print | Product List | Glossary Off
Versions: 1 2 3 4 5 6 7 8 9 10 11 12 13 14 15 16 17 18 19 20 21 22 23 24 25 26 27 28 29 30 31 32 33 34 35 36 37 38 39 40 41 42 43 44 45 46 47 48 49 50

000
ASUS43 KIND 260209
RWRIN

WEATHER ROUNDUP FOR INDIANA
NATIONAL WEATHER SERVICE INDIANAPOLIS IN
900 PM EST SAT FEB 25 2017

NOTE: "FAIR" INDICATES FEW OR NO CLOUDS BELOW 12,000 FEET WITH NO
SIGNIFICANT WEATHER AND/OR OBSTRUCTIONS TO VISIBILITY.

* - STATION DOES NOT REPORT WEATHER SUCH AS PRECIPITATION OR FOG.

+ - STATION NOT QUALITY CONTROLLED BY THE NATIONAL WEATHER SERVICE.
    USE DATA WITH CAUTION...ESPECIALLY DEWPOINT AND RELATIVE
    HUMIDITY OBSERVATIONS.

INZ001>003-010>013-019-020-260300-
NORTHWEST INDIANA

CITY           SKY/WX    TMP DP  RH WIND       PRES   REMARKS
GARY /AIRPORT/ MOCLDY    27  14  59 W14       30.02R WCI  15
KNOX *+        CLOUDY    28  -2  26 W13       30.00R WCI  18
LA PORTE +     CLOUDY    26  15  64 NW9       29.99R WCI  17
MICHIGAN CITY+ CLOUDY    28  16  59 NW8       30.00R WCI  20
MONTICELLO +   CLOUDY    28  17  63 W14       30.02R WCI  16
RENSSELAER +     N/A     28  18  64 W12       30.02R WCI  18
VALPARAISO     CLOUDY    27  16  63 W16       30.00R WCI  15

$$

LMZ046-743>745-260300-
SOUTHERN LAKE MICHIGAN

STATION/POSITION TIME  TEMP    WIND        PRES    WAVE
                       AIR SEA DIR/SP/G            HT
                 (UTC) (F)     (DEG/KT/KT) (MB)    (FT)
BURNS HARBOR     0140   27     280/ 15/ 19 1016.3R
MICHIGAN CITY    0140   27     260/ 19/ 21   N/A

$$

INZ004-005-014>016-021>024-260300-
NORTH CENTRAL INDIANA

CITY           SKY/WX    TMP DP  RH WIND       PRES   REMARKS
GOSHEN         CLOUDY    25  16  68 W12       29.98R WCI  14
LOGANSPORT +   CLOUDY    28  18  64 W12G18    30.02R WCI  18
PERU/GRISSOM   CLOUDY    27  17  63 W20G28    29.99R WCI  14
ROCHESTER +    CLOUDY    30  16  55 W10G18    30.00R WCI  21
SOUTH BEND     CLOUDY    25  16  68 W12       29.98R WCI  14
WARSAW +       CLOUDY    25  18  74 NW8       29.99R WCI  16

$$

INZ006>009-017-018-025>027-260300-
NORTHEAST INDIANA

CITY           SKY/WX    TMP DP  RH WIND       PRES   REMARKS
ANGOLA *+      CLOUDY    25  19  80 W9        29.94R WCI  15
AUBURN +       FLURRIES  27  19  74 W12       29.98R WCI  16
FORT WAYNE     CLOUDY    27  18  69 W17       29.98R WCI  14
HUNTINGTON +   CLOUDY    27  17  64 W9        29.99R WCI  18
KENDALLVILLE + FLURRIES  24  18  75 W7        29.96R WCI  16

$$

INZ028-029-035-036-043>045-051>053-260300-
WEST CENTRAL INDIANA

CITY           SKY/WX    TMP DP  RH WIND       PRES   REMARKS
LAFAYETTE      CLEAR     26  17  68 W10       30.03S WCI  16
TERRE HAUTE    CLEAR     31  13  47 W10       30.07R WCI  22

$$

INZ030>032-037>040-046>048-054>057-064-065-260300-
CENTRAL INDIANA

CITY           SKY/WX    TMP DP  RH WIND       PRES   REMARKS
CP ATTERBURY + CLEAR     30  18  59 CALM      30.05S
COLUMBUS       MOCLDY    28  18  64 SW7       30.06R WCI  21
FISHERS *+     PTCLDY    27  21  80 NW5       30.03R WCI  21
FRANKFORT +    MOCLDY    29  20  68 W12       30.03S WCI  20
GREENWOOD *+   CLEAR     30  17  56 W7        30.03S WCI  24
INDIANAPOLIS   MOCLDY    29  15  56 W10       30.03R WCI  20
-EAGLE CREEK   CLEAR     30  17  58 W7        30.02S WCI  23
KOKOMO +       CLOUDY    28  20  71 W17       30.01R WCI  16
MARION +       CLOUDY    28  20  70 W13G21    30.01R WCI  18
MT COMFORT *+  PTCLDY    25  18  74 W7        30.02S WCI  17
SHELBYVILLE    CLEAR     28  16  60 W6        30.02S WCI  22
ZIONSVILLE +   CLEAR     26  19  75 W8        30.03R WCI  18

$$

INZ033-034-041-042-049-050-058-059-260300-
EAST CENTRAL INDIANA

CITY           SKY/WX    TMP DP  RH WIND       PRES   REMARKS
MUNCIE         CLOUDY    29  17  61 W14       30.00R WCI  18

$$

INZ060-061-067>069-081>083-085>088-260300-
SOUTHWEST INDIANA

CITY           SKY/WX    TMP DP  RH WIND       PRES   REMARKS
EVANSVILLE     CLEAR     33  17  51 CALM      30.12R
HUNTINGBURG *+ CLEAR     31  18  58 W5        30.10R WCI  26
WASHINGTON +   CLEAR     31  17  57 W6        30.10R WCI  25

$$

INZ062-063-066-070>080-084-089>092-260300-
SOUTH CENTRAL AND SOUTHEAST INDIANA

CITY           SKY/WX    TMP DP  RH WIND       PRES   REMARKS
BEDFORD +      CLEAR     30  16  55 W5        30.06S WCI  25
BLOOMINGTON    CLEAR     30  15  53 W6        30.05R WCI  24
MADISON *+     CLEAR     30  19  64 CALM      30.08R
NORTH VERNON + PTCLDY    32  19  59 SW6       30.05S WCI  26
SEYMOUR +      CLEAR     30  18  59 W6        30.06S WCI  24

$$




USA.gov is the U.S. government's official web portal to all federal, state and local government web resources and services.